This is the latest recevied weather packets stored in our database for station/object G4KVI. If no packets are shown the sender has not sent any weather packets the latest 10 day(s).
| Time | Temp. | Humidity | Pressure | Rain* | Wind** | Luminosity | Snow |
|---|---|---|---|---|---|---|---|
| 1787393704 | 17.78° C | 54% | 1026 hPa | 0 mm | - | 613 W/m² | - |
| 1787393404 | 17.78° C | 53% | 1025.9 hPa | 0 mm | - | 599 W/m² | - |
| 1787393104 | 17.78° C | 54% | 1026.2 hPa | 0 mm | - | 589 W/m² | - |
| 1787392804 | 17.78° C | 55% | 1026.2 hPa | 0 mm | - | 578 W/m² | - |
| 1787392504 | 17.78° C | 56% | 1026 hPa | 0 mm | - | 571 W/m² | - |
| 1787392204 | 17.22° C | 56% | 1026.1 hPa | 0 mm | - | 561 W/m² | - |
| 1787391904 | 17.78° C | 56% | 1026 hPa | 0 mm | - | 551 W/m² | - |
| 1787391604 | 17.78° C | 57% | 1026.3 hPa | 0 mm | - | 543 W/m² | - |
| 1787391304 | 17.22° C | 57% | 1025.9 hPa | 0 mm | - | 532 W/m² | - |
| 1787391004 | 17.22° C | 59% | 1025.9 hPa | 0 mm | - | 523 W/m² | - |
| 1787390704 | 16.67° C | 58% | 1025.9 hPa | 0 mm | - | 512 W/m² | - |
| 1787390404 | 16.67° C | 59% | 1025.7 hPa | 0 mm | - | 504 W/m² | - |
| 1787390104 | 16.67° C | 58% | 1025.9 hPa | 0 mm | - | 493 W/m² | - |
| 1787389804 | 16.67° C | 58% | 1026.3 hPa | 0 mm | - | 479 W/m² | - |
| 1787389504 | 16.67° C | 60% | 1026.1 hPa | 0 mm | - | 469 W/m² | - |
| 1787389204 | 16.67° C | 61% | 1026.2 hPa | 0 mm | - | 455 W/m² | - |
| 1787388904 | 16.67° C | 60% | 1025.9 hPa | 0 mm | - | 447 W/m² | - |
| 1787388604 | 16.11° C | 61% | 1025.8 hPa | 0 mm | - | 435 W/m² | - |
| 1787388304 | 16.11° C | 61% | 1025.9 hPa | 0 mm | - | 421 W/m² | - |
| 1787388004 | 16.11° C | 62% | 1025.6 hPa | 0 mm | - | 410 W/m² | - |
| 1787387704 | 16.11° C | 63% | 1025.5 hPa | 0 mm | - | 397 W/m² | - |
| 1787387404 | 16.11° C | 63% | 1025.6 hPa | 0 mm | - | 384 W/m² | - |
| 1787387104 | 15.56° C | 65% | 1025.9 hPa | 0 mm | - | 372 W/m² | - |
| 1787386804 | 15.56° C | 65% | 1025.8 hPa | 0 mm | - | 360 W/m² | - |
| 1787386504 | 15.56° C | 65% | 1025.9 hPa | 0 mm | - | 345 W/m² | - |
* Rain latest hour (hover to see other rain measurements)
** Current wind speed in m/s (hover to see current wind gust speed)